Regional Weather Roundup
Issued by NWS

Home | Current Version | Previous Version | Graphics & Text | Print | Product List | Glossary Off
Versions: 1 2 3 4 5 6 7 8 9 10 11 12 13 14 15 16 17 18 19 20 21 22 23 24 25 26 27 28 29 30 31 32 33 34 35 36 37 38 39 40 41 42 43 44 45 46 47 48 49 50

000
ASUS43 KFSD 090110
RWRSD

WEATHER ROUNDUP FOR SOUTH DAKOTA
NATIONAL WEATHER SERVICE SIOUX FALLS SD
700 PM CST MON FEB 08 2016

NOTE: "FAIR" INDICATES FEW OR NO CLOUDS BELOW 12,000 FEET WITH NO
SIGNIFICANT WEATHER AND/OR OBSTRUCTIONS TO VISIBILITY.


SDZ001>005-009-010-012>017-090200-
NORTHWEST AND NORTH CENTRAL SOUTH DAKOTA

CITY           SKY/WX    TMP DP  RH WIND       PRES   REMARKS
BUFFALO          N/A     37  11  34 N13       30.18F
FAITH            N/A     33  13  43 NW13      30.24R WCI  24
MOBRIDGE       CLOUDY    33  18  53 N16       30.19F WCI  23
$$

SDZ012>016-024>037-041>051-057-063-072>074-090200-
SOUTHWEST AND SOUTH CENTRAL SOUTH DAKOTA

CITY           SKY/WX    TMP DP  RH WIND       PRES   REMARKS
RAPID CTY ARPT CLOUDY    38  16  40 N9        30.25R
PIERRE         CLOUDY    34  17  50 N16       30.23R WCI  24
CUSTER         CLOUDY    37  22  54 NW13G26   30.22S
ELLSWORTH AFB  CLOUDY    38  16  40 NE6       30.25R
PHILIP         CLOUDY    35  18  49 NW10      30.25F WCI  27
PINE RIDGE     CLOUDY    34  14  43 CALM      30.27S
SPEARFISH      CLOUDY    39  23  52 W9        30.28R
WINNER         CLOUDY    33  21  61 NW12      30.21R WCI  24
$$

SDZ004>011-016>023-039-040-090200-
NORTHEAST SOUTH DAKOTA

CITY           SKY/WX    TMP DP  RH WIND       PRES   REMARKS
ABERDEEN       PTCLDY    26  12  55 N16       30.21R WCI  14
WATERTOWN      CLEAR     17   9  70 N20       30.10S WCI   1
BROOKINGS      CLEAR     17  11  77 N15       30.10R WCI   2
SISSETON         N/A     12   9  87 N13       30.17R WCI  -3
$$

SDZ017-020-022-023-036>040-048>070-090200-
SOUTHEAST SOUTH DAKOTA

CITY           SKY/WX    TMP DP  RH WIND       PRES   REMARKS
SIOUX FALLS    CLOUDY    22  13  68 N21G30    30.10S WCI   6
HURON          CLEAR     25  16  68 N12       30.17S WCI  14
CHAMBERLAIN    MOCLDY    31  20  63 NW13      30.19S WCI  22
MITCHELL       CLOUDY    29  17  61 N16G24    30.18R WCI  17
YANKTON        PTCLDY    30  18  59 NW18      30.14S WCI  18
$$

ABBREVIATIONS USED IN REMARKS
   TC - TEMPERATURE IN CELSIUS
  WCI - WIND CHILL INDEX
   HX - HEAT INDEX
  VSB - VISIBILITY




USA.gov is the U.S. government's official web portal to all federal, state and local government web resources and services.